"Breath Start","Breath Insp Start","Breath End","Breath Duration","Breath Rate"
11:13:21.115,11:13:21.865,11:13:22.415,1.3,46.154
11:13:22.415,11:13:23.165,11:13:23.815,1.4,42.857
11:13:23.815,11:13:24.065,11:13:24.565,0.75,80
11:13:24.565,11:13:25.165,11:13:25.715,1.15,52.174
11:13:25.715,11:13:26.315,11:13:26.915,1.2,50
11:13:26.915,11:13:27.365,11:13:28.065,1.15,52.174
11:13:28.065,11:13:28.465,11:13:29.215,1.15,52.174
11:13:29.215,11:13:29.565,11:13:30.165,0.95,63.158
11:13:30.165,11:13:30.615,11:13:31.115,0.95,63.158
11:13:31.115,11:13:31.415,11:13:31.815,0.7,85.714
11:13:31.815,11:13:32.115,11:13:32.465,0.65,92.308
11:13:32.465,11:13:32.715,11:13:33.165,0.7,85.714
11:13:33.165,11:13:33.415,11:13:33.815,0.65,92.308
11:13:33.815,11:13:34.115,11:13:34.515,0.7,85.714
11:13:34.515,11:13:34.715,11:13:35.115,0.6,100
11:13:35.115,11:13:35.315,11:13:35.665,0.55,109.09
11:13:35.665,11:13:35.865,11:13:36.215,0.55,109.09
11:13:36.215,11:13:36.465,11:13:36.815,0.6,100
11:13:36.815,11:13:37.015,11:13:37.365,0.55,109.09
11:13:37.365,11:13:37.565,11:13:37.865,0.5,120
11:13:37.865,11:13:38.415,11:13:38.765,0.9,66.667
11:13:38.765,11:13:38.965,11:13:39.315,0.55,109.09
11:13:39.315,11:13:39.565,11:13:39.965,0.65,92.308
11:13:39.965,11:13:40.265,11:13:40.715,0.75,80
11:13:40.715,11:13:41.015,11:13:41.415,0.7,85.714
11:13:41.415,11:13:41.765,11:13:42.215,0.8,75
11:13:42.215,11:13:42.415,11:13:42.765,0.55,109.09
11:13:42.765,11:13:42.915,11:13:43.215,0.45,133.33
11:13:43.215,11:13:43.465,11:13:43.765,0.55,109.09
11:13:43.765,11:13:43.965,11:13:44.315,0.55,109.09
11:13:44.315,11:13:44.565,11:13:45.865,1.55,38.71
11:13:46.965,11:13:47.715,11:13:48.015,1.05,57.143
11:13:49.515,11:13:49.715,11:13:50.015,0.5,120
11:13:50.015,11:13:50.215,11:13:50.515,0.5,120
11:13:51.215,11:13:51.615,11:13:52.915,1.7,35.294
11:13:53.265,11:13:53.465,11:13:53.765,0.5,120
11:13:53.765,11:13:53.915,11:13:54.315,0.55,109.09
11:13:54.715,11:13:54.965,11:13:55.315,0.6,100
11:13:55.315,11:13:55.465,11:13:55.815,0.5,120
11:13:55.815,11:13:56.015,11:13:56.415,0.6,100
11:13:56.415,11:13:56.665,11:13:57.015,0.6,100
11:13:57.015,11:13:57.215,11:13:57.615,0.6,100
11:13:58.165,11:13:58.315,11:13:58.665,0.5,120
11:13:58.665,11:13:58.865,11:13:59.165,0.5,120
11:13:59.165,11:13:59.365,11:14:00.265,1.1,54.545
11:14:00.265,11:14:00.965,11:14:03.665,3.4,17.647
11:14:03.665,11:14:05.065,11:14:05.465,1.8,33.333
11:14:05.465,11:14:05.865,11:14:06.415,0.95,63.158
11:14:06.415,11:14:06.765,11:14:07.215,0.8,75
11:14:07.215,11:14:07.665,11:14:08.015,0.8,75
11:14:08.015,11:14:08.415,11:14:08.865,0.85,70.588
11:14:08.865,11:14:09.065,11:14:09.465,0.6,100
11:14:09.465,11:14:09.765,11:14:10.215,0.75,80
11:14:10.215,11:14:10.465,11:14:10.915,0.7,85.714
11:14:10.915,11:14:11.215,11:14:11.615,0.7,85.714
11:14:11.615,11:14:11.865,11:14:12.265,0.65,92.308
11:14:12.265,11:14:12.465,11:14:12.865,0.6,100
11:14:13.515,11:14:13.765,11:14:14.165,0.65,92.308
11:14:14.165,11:14:14.365,11:14:14.765,0.6,100
11:14:14.765,11:14:15.065,11:14:15.565,0.8,75
11:14:15.565,11:14:16.215,11:14:16.765,1.2,50
11:14:16.765,11:14:17.015,11:14:17.365,0.6,100
11:14:17.365,11:14:17.565,11:14:18.065,0.7,85.714
11:14:18.065,11:14:18.315,11:14:18.765,0.7,85.714
11:14:19.815,11:14:20.065,11:14:20.515,0.7,85.714
11:14:20.515,11:14:20.765,11:14:21.265,0.75,80
11:14:21.265,11:14:21.515,11:14:21.965,0.7,85.714
11:14:21.965,11:14:22.215,11:14:22.665,0.7,85.714
11:14:22.665,11:14:22.965,11:14:23.415,0.75,80
11:14:23.415,11:14:23.715,11:14:24.165,0.75,80
11:14:24.165,11:14:24.515,11:14:24.915,0.75,80
11:14:24.915,11:14:25.165,11:14:25.615,0.7,85.714
11:14:25.615,11:14:25.865,11:14:26.265,0.65,92.308
11:14:26.265,11:14:26.565,11:14:27.065,0.8,75
11:14:27.065,11:14:27.365,11:14:27.815,0.75,80
11:14:27.815,11:14:28.065,11:14:28.515,0.7,85.714
11:14:28.515,11:14:28.765,11:14:29.315,0.8,75
11:14:29.315,11:14:29.665,11:14:30.115,0.8,75
11:14:30.115,11:14:30.465,11:14:31.065,0.95,63.158
11:14:31.065,11:14:31.365,11:14:31.865,0.8,75
11:14:31.865,11:14:32.215,11:14:32.815,0.95,63.158
11:14:32.815,11:14:33.165,11:14:33.765,0.95,63.158
11:14:33.765,11:14:34.215,11:14:34.815,1.05,57.143
11:14:34.815,11:14:35.215,11:14:35.765,0.95,63.158
11:14:35.765,11:14:36.115,11:14:36.615,0.85,70.588
11:14:36.615,11:14:37.015,11:14:37.615,1,60
11:14:37.615,11:14:37.915,11:14:38.415,0.8,75
11:14:38.415,11:14:38.715,11:14:39.115,0.7,85.714
11:14:39.715,11:14:40.115,11:14:40.515,0.8,75
11:14:41.865,11:14:42.115,11:14:42.515,0.65,92.308
11:14:42.515,11:14:42.815,11:14:43.265,0.75,80
11:14:43.265,11:14:43.665,11:14:44.165,0.9,66.667
11:14:44.165,11:14:44.565,11:14:45.065,0.9,66.667
11:14:45.765,11:14:46.065,11:14:46.415,0.65,92.308
11:14:46.415,11:14:46.665,11:14:47.115,0.7,85.714
11:14:47.115,11:14:47.365,11:14:47.715,0.6,100
11:14:47.715,11:14:47.915,11:14:48.365,0.65,92.308
11:14:48.365,11:14:48.665,11:14:49.065,0.7,85.714
11:14:49.065,11:14:49.365,11:14:49.665,0.6,100
11:14:49.665,11:14:49.915,11:14:50.315,0.65,92.308
11:14:50.315,11:14:50.565,11:14:51.015,0.7,85.714
11:14:51.015,11:14:51.215,11:14:51.665,0.65,92.308
11:14:51.665,11:14:52.015,11:14:52.515,0.85,70.588
11:14:52.515,11:14:52.815,11:14:53.215,0.7,85.714
11:14:53.215,11:14:53.515,11:14:53.965,0.75,80
11:14:53.965,11:14:54.265,11:14:55.215,1.25,48
11:14:55.215,11:14:55.515,11:14:55.865,0.65,92.308
11:14:55.865,11:14:56.065,11:14:56.415,0.55,109.09
11:14:56.415,11:14:56.665,11:14:57.015,0.6,100
11:14:57.015,11:14:57.365,11:14:57.765,0.75,80
11:14:57.765,11:14:58.115,11:14:58.665,0.9,66.667
11:14:58.665,11:14:59.015,11:14:59.415,0.75,80
11:14:59.415,11:14:59.765,11:15:00.265,0.85,70.588
11:15:00.265,11:15:00.665,11:15:01.165,0.9,66.667
11:15:01.165,11:15:01.565,11:15:02.115,0.95,63.158
11:15:02.115,11:15:02.515,11:15:03.065,0.95,63.158
11:15:03.065,11:15:03.415,11:15:03.915,0.85,70.588
11:15:03.915,11:15:04.365,11:15:04.865,0.95,63.158
11:15:04.865,11:15:05.165,11:15:05.665,0.8,75
11:15:05.665,11:15:06.015,11:15:06.515,0.85,70.588
11:15:06.515,11:15:06.865,11:15:07.415,0.9,66.667
11:15:07.415,11:15:07.715,11:15:08.265,0.85,70.588
11:15:08.265,11:15:08.465,11:15:08.965,0.7,85.714
11:15:08.965,11:15:09.265,11:15:09.715,0.75,80
11:15:09.715,11:15:10.115,11:15:10.665,0.95,63.158
11:15:10.665,11:15:11.065,11:15:11.665,1,60
11:15:11.665,11:15:12.115,11:15:12.665,1,60
11:15:12.665,11:15:13.065,11:15:13.615,0.95,63.158
11:15:13.615,11:15:14.065,11:15:14.665,1.05,57.143
11:15:14.665,11:15:15.065,11:15:15.665,1,60
11:15:15.665,11:15:16.215,11:15:16.915,1.25,48
11:15:16.915,11:15:17.465,11:15:18.165,1.25,48
11:15:18.915,11:15:19.215,11:15:19.715,0.8,75
11:15:19.715,11:15:20.165,11:15:20.665,0.95,63.158
11:15:20.665,11:15:21.015,11:15:21.415,0.75,80
11:15:21.415,11:15:21.865,11:15:22.365,0.95,63.158
11:15:22.365,11:15:22.615,11:15:23.015,0.65,92.308
11:15:23.015,11:15:23.265,11:15:23.765,0.75,80
11:15:23.765,11:15:24.065,11:15:24.465,0.7,85.714
11:15:24.465,11:15:24.815,11:15:25.265,0.8,75
11:15:25.265,11:15:25.615,11:15:26.015,0.75,80
11:15:26.015,11:15:26.415,11:15:26.865,0.85,70.588
11:15:26.865,11:15:27.115,11:15:27.615,0.75,80
11:15:27.615,11:15:27.915,11:15:28.365,0.75,80
11:15:28.365,11:15:28.665,11:15:29.165,0.8,75
11:15:29.165,11:15:29.565,11:15:30.015,0.85,70.588
11:15:30.015,11:15:30.465,11:15:30.965,0.95,63.158
11:15:30.965,11:15:31.315,11:15:31.715,0.75,80
11:15:31.715,11:15:32.065,11:15:32.615,0.9,66.667
11:15:32.615,11:15:32.915,11:15:33.315,0.7,85.714
11:15:33.315,11:15:33.715,11:15:34.215,0.9,66.667
11:15:34.215,11:15:34.865,11:15:35.365,1.15,52.174
11:15:35.365,11:15:35.815,11:15:36.265,0.9,66.667
11:15:36.265,11:15:36.615,11:15:37.065,0.8,75
11:15:37.065,11:15:37.365,11:15:37.815,0.75,80
11:15:37.815,11:15:38.065,11:15:38.565,0.75,80
11:15:38.565,11:15:38.815,11:15:39.215,0.65,92.308
11:15:39.215,11:15:39.615,11:15:40.015,0.8,75
11:15:40.015,11:15:40.415,11:15:40.815,0.8,75
11:15:40.815,11:15:41.165,11:15:41.615,0.8,75
11:15:41.615,11:15:41.965,11:15:42.465,0.85,70.588
11:15:42.465,11:15:42.965,11:15:43.415,0.95,63.158
11:15:43.415,11:15:43.815,11:15:44.215,0.8,75
11:15:44.215,11:15:44.515,11:15:45.015,0.8,75
11:15:45.015,11:15:45.315,11:15:45.865,0.85,70.588
11:15:45.865,11:15:46.165,11:15:46.615,0.75,80
11:15:46.615,11:15:46.915,11:15:47.415,0.8,75
11:15:47.415,11:15:47.765,11:15:48.215,0.8,75
11:15:48.215,11:15:48.615,11:15:49.065,0.85,70.588
11:15:49.065,11:15:49.465,11:15:49.865,0.8,75
11:15:49.865,11:15:50.215,11:15:50.815,0.95,63.158
11:15:50.815,11:15:51.115,11:15:51.615,0.8,75
11:15:51.615,11:15:51.965,11:15:52.415,0.8,75
11:15:52.415,11:15:52.715,11:15:53.215,0.8,75
11:15:53.215,11:15:53.515,11:15:54.015,0.8,75
11:15:54.015,11:15:54.315,11:15:54.765,0.75,80
11:15:54.765,11:15:55.015,11:15:55.415,0.65,92.308
11:15:55.415,11:15:55.665,11:15:56.065,0.65,92.308
11:15:56.065,11:15:56.315,11:15:56.615,0.55,109.09
11:15:56.615,11:15:57.065,11:15:57.515,0.9,66.667
11:15:57.515,11:15:57.865,11:15:58.215,0.7,85.714
11:15:58.215,11:15:58.615,11:15:58.965,0.75,80
11:15:58.965,11:15:59.415,11:15:59.915,0.95,63.158
11:15:59.915,11:16:00.315,11:16:00.715,0.8,75
11:16:00.715,11:16:01.115,11:16:01.565,0.85,70.588
11:16:01.565,11:16:02.065,11:16:02.615,1.05,57.143
11:16:02.615,11:16:03.115,11:16:03.665,1.05,57.143
11:16:03.665,11:16:04.215,11:16:04.715,1.05,57.143
11:16:04.715,11:16:05.165,11:16:05.615,0.9,66.667
11:16:05.615,11:16:06.065,11:16:08.065,2.45,24.49
11:16:08.065,11:16:08.365,11:16:08.865,0.8,75
11:16:08.865,11:16:09.865,11:16:10.315,1.45,41.379
11:16:10.315,11:16:10.765,11:16:11.265,0.95,63.158
11:16:11.265,11:16:11.765,11:16:12.315,1.05,57.143
11:16:12.315,11:16:12.815,11:16:13.365,1.05,57.143
11:16:13.365,11:16:14.065,11:16:14.515,1.15,52.174
11:16:14.515,11:16:15.065,11:16:15.715,1.2,50
11:16:15.715,11:16:16.365,11:16:17.015,1.3,46.154
11:16:17.015,11:16:17.465,11:16:18.065,1.05,57.143
11:16:18.065,11:16:18.765,11:16:19.515,1.45,41.379
11:16:19.515,11:16:20.065,11:16:20.765,1.25,48
11:16:20.765,11:16:21.165,11:16:21.765,1,60
11:16:21.765,11:16:22.365,11:16:22.865,1.1,54.545
11:16:22.865,11:16:23.565,11:16:24.215,1.35,44.444
11:16:24.215,11:16:24.665,11:16:25.215,1,60
11:16:25.215,11:16:25.915,11:16:26.515,1.3,46.154
11:16:26.515,11:16:27.215,11:16:27.865,1.35,44.444
11:16:27.865,11:16:28.515,11:16:29.165,1.3,46.154
11:16:29.165,11:16:29.865,11:16:30.415,1.25,48
11:16:30.415,11:16:31.065,11:16:31.765,1.35,44.444
11:16:31.765,11:16:32.465,11:16:33.065,1.3,46.154
11:16:33.065,11:16:33.715,11:16:34.315,1.25,48
11:16:34.315,11:16:35.015,11:16:35.615,1.3,46.154
11:16:35.615,11:16:36.265,11:16:36.865,1.25,48
11:16:36.865,11:16:37.465,11:16:38.115,1.25,48
11:16:38.115,11:16:38.865,11:16:39.565,1.45,41.379
11:16:39.565,11:16:40.265,11:16:41.115,1.55,38.71
11:16:41.115,11:16:41.815,11:16:42.415,1.3,46.154
11:16:42.415,11:16:43.065,11:16:43.565,1.15,52.174
11:16:43.565,11:16:44.265,11:16:44.815,1.25,48
11:16:44.815,11:16:45.465,11:16:46.115,1.3,46.154
11:16:46.115,11:16:46.915,11:16:47.515,1.4,42.857
11:16:47.515,11:16:48.265,11:16:48.915,1.4,42.857
11:16:48.915,11:16:49.665,11:16:50.365,1.45,41.379
11:16:50.365,11:16:51.165,11:16:51.815,1.45,41.379
11:16:51.815,11:16:52.565,11:16:53.265,1.45,41.379
11:16:53.265,11:16:53.965,11:16:54.615,1.35,44.444
11:16:54.615,11:16:55.415,11:16:56.165,1.55,38.71
11:16:56.165,11:16:56.865,11:16:57.765,1.6,37.5
11:16:57.765,11:16:58.815,11:16:59.415,1.65,36.364
11:16:59.415,11:17:00.065,11:17:00.615,1.2,50
11:17:00.615,11:17:01.165,11:17:01.765,1.15,52.174
11:17:01.765,11:17:02.265,11:17:02.915,1.15,52.174
11:17:02.915,11:17:03.515,11:17:04.065,1.15,52.174
11:17:04.065,11:17:04.615,11:17:05.265,1.2,50
11:17:05.265,11:17:05.815,11:17:06.315,1.05,57.143
11:17:06.315,11:17:06.865,11:17:07.515,1.2,50
11:17:07.515,11:17:08.065,11:17:08.565,1.05,57.143
11:17:08.565,11:17:09.415,11:17:09.965,1.4,42.857
11:17:09.965,11:17:10.515,11:17:11.115,1.15,52.174
11:17:11.115,11:17:11.865,11:17:12.515,1.4,42.857
11:17:12.515,11:17:13.215,11:17:13.815,1.3,46.154
11:17:13.815,11:17:14.565,11:17:15.165,1.35,44.444
11:17:15.165,11:17:15.815,11:17:16.465,1.3,46.154
11:17:16.465,11:17:17.165,11:17:17.765,1.3,46.154
11:17:17.765,11:17:18.415,11:17:19.015,1.25,48
11:17:19.015,11:17:19.615,11:17:20.315,1.3,46.154
11:17:20.315,11:17:21.065,11:17:21.615,1.3,46.154
11:17:21.615,11:17:22.265,11:17:23.015,1.4,42.857
11:17:23.015,11:17:23.615,11:17:24.265,1.25,48
11:17:24.265,11:17:24.915,11:17:25.515,1.25,48
11:17:25.515,11:17:26.265,11:17:27.015,1.5,40
11:17:27.015,11:17:27.715,11:17:28.265,1.25,48
11:17:28.265,11:17:29.065,11:17:29.765,1.5,40
11:17:29.765,11:17:30.465,11:17:31.065,1.3,46.154
11:17:31.065,11:17:31.815,11:17:32.515,1.45,41.379
11:17:32.515,11:17:33.315,11:17:33.965,1.45,41.379
11:17:33.965,11:17:34.815,11:17:35.515,1.55,38.71
11:17:35.515,11:17:36.165,11:17:36.765,1.25,48
11:17:36.765,11:17:37.565,11:17:38.165,1.4,42.857
11:17:38.165,11:17:38.865,11:17:39.465,1.3,46.154
11:17:39.465,11:17:40.065,11:17:40.815,1.35,44.444
11:17:40.815,11:17:41.565,11:17:42.365,1.55,38.71
11:17:42.365,11:17:43.015,11:17:43.615,1.25,48
11:17:43.615,11:17:44.365,11:17:45.165,1.55,38.71
11:17:45.165,11:17:45.815,11:17:47.165,2,30
11:17:47.165,11:17:47.965,11:17:48.765,1.6,37.5
11:17:48.765,11:17:49.415,11:17:49.965,1.2,50
11:17:49.965,11:17:50.515,11:17:51.215,1.25,48
11:17:51.215,11:17:51.915,11:17:52.715,1.5,40
11:17:52.715,11:17:53.115,11:17:53.715,1,60
11:17:53.715,11:17:54.265,11:17:55.015,1.3,46.154
11:17:55.015,11:17:55.415,11:17:56.065,1.05,57.143
11:17:56.065,11:17:56.415,11:17:56.965,0.9,66.667
11:17:56.965,11:17:57.265,11:17:57.815,0.85,70.588
11:17:57.815,11:17:58.115,11:17:58.515,0.7,85.714
11:17:58.515,11:17:58.815,11:17:59.265,0.75,80
11:17:59.265,11:17:59.515,11:17:59.965,0.7,85.714
11:17:59.965,11:18:00.165,11:18:00.615,0.65,92.308
11:18:00.615,11:18:00.765,11:18:01.715,1.1,54.545
11:18:02.465,11:18:03.015,11:18:03.715,1.25,48
11:18:03.715,11:18:04.115,11:18:04.665,0.95,63.158
11:18:04.665,11:18:05.065,11:18:05.615,0.95,63.158
11:18:05.615,11:18:06.215,11:18:06.765,1.15,52.174
11:18:06.765,11:18:07.015,11:18:07.315,0.55,109.09
11:18:07.315,11:18:07.565,11:18:07.865,0.55,109.09
11:18:07.865,11:18:08.215,11:18:08.865,1,60
11:18:08.865,11:18:09.165,11:18:09.665,0.8,75
11:18:09.665,11:18:09.915,11:18:10.215,0.55,109.09
11:18:10.765,11:18:11.215,11:18:11.615,0.85,70.588
11:18:11.615,11:18:11.865,11:18:12.215,0.6,100
11:18:12.215,11:18:12.465,11:18:12.815,0.6,100
11:18:12.815,11:18:13.165,11:18:13.565,0.75,80
11:18:13.565,11:18:13.765,11:18:14.165,0.6,100
11:18:14.165,11:18:14.415,11:18:15.015,0.85,70.588
11:18:15.015,11:18:15.365,11:18:16.465,1.45,41.379
11:18:16.465,11:18:16.865,11:18:17.465,1,60
11:18:17.465,11:18:18.365,11:18:19.165,1.7,35.294
11:18:19.165,11:18:19.965,11:18:20.815,1.65,36.364
11:18:20.815,11:18:21.365,11:18:21.965,1.15,52.174
